Cairns, Australia

1:14 AM AEST on May 26, 2017 (GMT +1000)
Cairns International

Weather History for YBCS - January, 2013

Change the Weather History Date:

Thursday, January 3, 2013

  Actual Average Record
Temperature  
Mean Temperature 82 °F -  
Max Temperature 91 °F 89 °F 92 °F (2015)
Min Temperature 73 °F 74 °F 69 °F (2012)
Cooling Degree Days 17    
Growing Degree Days 32 (Base 50)    
Moisture  
Dew Point 70 °F    
Average Humidity 66    
Maximum Humidity 94    
Minimum Humidity 37    
Precipitation  
Precipitation 0.08 in 0.52 in - ()
Sea Level Pressure  
Sea Level Pressure 29.77 in    
Wind  
Wind Speed 10 mph ()    
Max Wind Speed 21 mph    
Max Gust Speed -    
Visibility 7.0 miles    
Events Rain    
Averages and records for this station are not official NWS values.
T = Trace of Precipitation, MM = Missing Value Source: Averaged Metar Reports

Daily Weather History Graph

Daily Weather History Graph

Search for Another Location

Airport or City:

Trip Planner

Search our weather history database for the weather conditions in past years. The results will help you decide how hot, cold, wet, or windy it might be!

Date:

Astronomy

Jan. 03, 2013 Rise Set
Actual Time 5:48 AM AEST 6:54 PM AEST
Civil Twilight 5:24 AM AEST 7:18 PM AEST
Nautical Twilight 4:56 AM AEST 7:46 PM AEST
Astronomical Twilight 4:26 AM AEST 8:15 PM AEST
Moon 10:50 PM AEST (1/3) 10:27 AM AEST (1/3)
Length of Visible Light 13h 54m
Length of Day
13h 06m
Waning Gibbous, 72% of the Moon is Illuminated
Jan 3
Waning Gibbous
Jan 5
Last Quarter
Jan 12
New
Jan 19
First Quarter
Jan 27
Full

Hourly Weather History & Observations

Time (AEST) Temp. Heat Index Dew Point Humidity Pressure Visibility Wind Dir Wind Speed Gust Speed Precip Events Conditions
12:00 AM 79 °F - 72 °F 74% 29.82 in - South 6.9 mph - -  
12:00 AM 78.8 °F - 71.6 °F 78% 29.80 in 6.2 mi South 6.9 mph - N/A   Scattered Clouds
12:30 AM 78.8 °F - 71.6 °F 78% 29.80 in 6.2 mi South 8.1 mph - N/A   Scattered Clouds
1:00 AM 79 °F - 71 °F 71% 29.81 in - South 9.2 mph - -  
1:00 AM 78.8 °F - 71.6 °F 78% 29.80 in 6.2 mi South 9.2 mph - N/A   Scattered Clouds
1:30 AM 78.8 °F - 71.6 °F 78% 29.80 in 6.2 mi SSE 6.9 mph - N/A   Partly Cloudy
2:00 AM 77.0 °F - 71.6 °F 83% 29.77 in 6.2 mi South 6.9 mph - N/A   Partly Cloudy
2:30 AM 75.2 °F - 71.6 °F 89% 29.77 in 6.2 mi ESE 10.4 mph - N/A   Partly Cloudy
3:00 AM 75 °F - 72 °F 89% 29.77 in - SE 9.2 mph - -  
3:00 AM 75.2 °F - 71.6 °F 89% 29.77 in 6.2 mi SE 9.2 mph - N/A   Partly Cloudy
3:30 AM 75.2 °F - 71.6 °F 89% 29.74 in 6.2 mi SE 8.1 mph - N/A   Partly Cloudy
4:00 AM 76 °F - 71 °F 78% 29.77 in - SE 8.1 mph - -  
4:00 AM 75.2 °F - 69.8 °F 83% 29.74 in 6.2 mi SE 8.1 mph - N/A   Partly Cloudy
4:30 AM 75.2 °F - 71.6 °F 89% 29.74 in 6.2 mi ESE 9.2 mph - N/A   Partly Cloudy
5:00 AM 75.2 °F - 71.6 °F 89% 29.74 in 6.2 mi SE 8.1 mph - N/A   Partly Cloudy
5:30 AM 75.2 °F - 71.6 °F 89% 29.77 in 6.2 mi SE 9.2 mph - N/A   Mostly Cloudy
6:00 AM 74 °F - 71 °F 86% 29.80 in 19 mi SSW 3.5 mph - -   Partly Cloudy
6:00 AM 73.4 °F - 69.8 °F 88% 29.80 in 6.2 mi SSW 3.5 mph - N/A   Mostly Cloudy
6:30 AM 73.4 °F - 71.6 °F 94% 29.80 in 6.2 mi WNW 4.6 mph - N/A   Mostly Cloudy
7:00 AM 78 °F - 71 °F 72% 29.82 in - SE 10.4 mph - -  
7:00 AM 77.0 °F - 71.6 °F 83% 29.80 in 6.2 mi SE 10.4 mph - N/A   Partly Cloudy
7:30 AM 80.6 °F 83.2 °F 68.0 °F 65% 29.80 in 6.2 mi SE 10.4 mph - N/A   Partly Cloudy
8:00 AM 82.4 °F 85.4 °F 68.0 °F 62% 29.80 in 6.2 mi SSE 8.1 mph - N/A   Partly Cloudy
8:30 AM 84.2 °F 87.3 °F 68.0 °F 58% 29.80 in 6.2 mi South 8.1 mph - N/A   Partly Cloudy
9:00 AM 86 °F - 69 °F 47% 29.81 in 19 mi South 8.1 mph - -   Partly Cloudy
9:00 AM 86.0 °F 89.4 °F 68.0 °F 55% 29.80 in 6.2 mi South 8.1 mph - N/A   Partly Cloudy
9:30 AM 87.8 °F 91.4 °F 68.0 °F 52% 29.80 in 6.2 mi South 9.2 mph - N/A   Partly Cloudy
10:00 AM 87 °F - 68 °F 44% 29.81 in - SE 9.2 mph - -  
10:00 AM 87.8 °F 91.4 °F 68.0 °F 52% 29.80 in 6.2 mi SE 9.2 mph - N/A   Partly Cloudy
10:30 AM 87.8 °F 91.4 °F 68.0 °F 52% 29.80 in 6.2 mi SSE 10.4 mph - N/A   Partly Cloudy
11:00 AM 89.6 °F 93.4 °F 68.0 °F 49% 29.77 in 6.2 mi ENE 13.8 mph - N/A   Partly Cloudy
11:30 AM 89.6 °F 93.4 °F 68.0 °F 49% 29.77 in 6.2 mi ESE 10.4 mph - N/A   Partly Cloudy
12:00 PM 91 °F - 68 °F 37% 29.78 in 19 mi SSE 15.0 mph - -   Partly Cloudy
12:00 PM 91.4 °F 95.4 °F 68.0 °F 46% 29.77 in 6.2 mi SSE 15.0 mph - N/A   Scattered Clouds
12:30 PM 89.6 °F 93.4 °F 68.0 °F 49% 29.77 in 6.2 mi SE 15.0 mph - N/A   Scattered Clouds
1:00 PM 91 °F - 68 °F 38% 29.78 in - SE 17.3 mph - -  
1:00 PM 91.4 °F 95.4 °F 68.0 °F 46% 29.77 in 6.2 mi SE 17.3 mph - N/A   Mostly Cloudy
1:30 PM 91.4 °F 96.8 °F 69.8 °F 49% 29.77 in 6.2 mi ESE 17.3 mph - N/A   Mostly Cloudy
2:00 PM 91.4 °F 94.0 °F 66.2 °F 43% 29.74 in 6.2 mi SE 17.3 mph - N/A   Mostly Cloudy
2:30 PM 91.4 °F 95.4 °F 68.0 °F 46% 29.74 in 6.2 mi ESE 17.3 mph - N/A   Mostly Cloudy
3:00 PM 90 °F - 67 °F 37% 29.74 in 19 mi SE 20.7 mph - -   Partly Cloudy
3:00 PM 89.6 °F 93.4 °F 68.0 °F 49% 29.74 in 6.2 mi SE 20.7 mph - N/A   Mostly Cloudy
3:30 PM 89.6 °F 92.2 °F 66.2 °F 46% 29.71 in 6.2 mi SE 19.6 mph - N/A   Mostly Cloudy
4:00 PM 89 °F - 68 °F 41% 29.73 in - SE 16.1 mph - -  
4:00 PM 89.6 °F 93.4 °F 68.0 °F 49% 29.71 in 6.2 mi SE 16.1 mph - N/A   Scattered Clouds
4:30 PM 89.6 °F 94.7 °F 69.8 °F 52% 29.71 in 6.2 mi SSE 17.3 mph - N/A   Scattered Clouds
5:00 PM 87.8 °F 92.6 °F 69.8 °F 55% 29.71 in 6.2 mi SE 17.3 mph - N/A   Scattered Clouds
5:30 PM 87.8 °F 92.6 °F 69.8 °F 55% 29.71 in 6.2 mi SE 17.3 mph - N/A   Scattered Clouds
6:00 PM 85 °F - 71 °F 55% 29.74 in - SE 17.3 mph - -  
6:00 PM 84.2 °F 89.6 °F 71.6 °F 66% 29.74 in 6.2 mi SE 17.3 mph - N/A   Scattered Clouds
6:30 PM 84.2 °F 89.6 °F 71.6 °F 66% 29.74 in 6.2 mi SE 17.3 mph - N/A   Scattered Clouds
7:00 PM 83 °F - 72 °F 63% 29.77 in - SE 17.3 mph - -  
7:00 PM 82.4 °F 88.2 °F 73.4 °F 74% 29.74 in 6.2 mi SE 17.3 mph - N/A   Mostly Cloudy
7:30 PM 82.4 °F 88.2 °F 73.4 °F 74% 29.77 in 6.2 mi SSE 17.3 mph - N/A   Mostly Cloudy
8:00 PM 82.4 °F 88.2 °F 73.4 °F 74% 29.77 in 6.2 mi SE 19.6 mph - N/A   Scattered Clouds
8:30 PM 82.4 °F 87.2 °F 71.6 °F 70% 29.77 in 6.2 mi SSE 16.1 mph - N/A   Partly Cloudy
9:00 PM 82 °F - 72 °F 65% 29.79 in - South 10.4 mph - -  
9:00 PM 82.4 °F 87.2 °F 71.6 °F 70% 29.77 in 6.2 mi South 10.4 mph - N/A   Partly Cloudy
9:30 PM 80.6 °F 85.4 °F 73.4 °F 79% 29.77 in 6.2 mi South 9.2 mph - N/A   Scattered Clouds
10:00 PM 81 °F - 73 °F 70% 29.81 in - South 9.2 mph - -  
10:00 PM 80.6 °F 85.4 °F 73.4 °F 79% 29.80 in 6.2 mi South 9.2 mph - N/A   Partly Cloudy
10:22 PM 80.6 °F 85.4 °F 73.4 °F 79% 29.80 in 3.7 mi South 9.2 mph - N/A Rain Light Rain Showers
10:30 PM 80.6 °F 85.4 °F 73.4 °F 79% 29.80 in 1.9 mi South 10.4 mph - N/A Rain Light Rain Showers
11:00 PM 78.8 °F - 73.4 °F 83% 29.80 in 6.2 mi South 6.9 mph - N/A   Scattered Clouds
11:30 PM 78.8 °F - 73.4 °F 83% 29.77 in 6.2 mi South 9.2 mph - N/A   Scattered Clouds